Weather History for Troy, MI

Change the Weather History Date:

Sunday, July 22, 2012

  Actual Average (KDET) Record (KDET)
Temperature  
Mean Temperature 81 °F -  
Max Temperature 91 °F 83 °F 95 °F (1952)
Min Temperature 71 °F 64 °F 52 °F (1992)
Cooling Degree Days 16    
Growing Degree Days 31 (Base 50)    
Moisture  
Dew Point 60 °F    
Average Humidity 47    
Maximum Humidity 66    
Minimum Humidity 32    
Precipitation  
Precipitation 0.00 in - - ()
Sea Level Pressure  
Sea Level Pressure 30.07 in    
Wind  
Wind Speed 7 mph (WSW)    
Max Wind Speed 14 mph    
Max Gust Speed 21 mph    
Visibility 10 miles    
Events      
Averages and records for this station are not official NWS values.
T = Trace of Precipitation, MM = Missing Value Source: NWS Daily Summary

Daily Weather History Graph

Daily Weather History Graph

Search for Another Location

Airport:

Trip Planner

Search our weather history database for the weather conditions in past years. The results will help you decide how hot, cold, wet, or windy it might be!

Date:

Astronomy

Jul. 22, 2012 Rise Set
Actual Time 6:15 AM EDT 9:02 PM EDT
Civil Twilight 5:42 AM EDT 9:35 PM EDT
Nautical Twilight 5:00 AM EDT 10:16 PM EDT
Astronomical Twilight 4:12 AM EDT 11:04 PM EDT
Moon 10:06 AM EDT (7/22) 10:37 PM EDT (7/22)
Length of Visible Light 15h 52m
Length of Day
14h 47m
Waxing Crescent, 13% of the Moon is Illuminated
Jul 22
Waxing Crescent
Jul 26
First Quarter
Aug 1
Full
Aug 9
Last Quarter
Aug 17
New

Hourly Weather History & Observations

Time (EDT) Temp. Heat Index Dew Point Humidity Pressure Visibility Wind Dir Wind Speed Gust Speed Precip Events Conditions
12:14 AM 79.3 °F - 59.4 °F 50% 30.06 in 10.0 mi West 10.4 mph - N/A   Clear
12:35 AM 79.0 °F - 59.2 °F 51% 30.07 in 10.0 mi West 8.1 mph - N/A   Clear
12:54 AM 78.4 °F - 59.2 °F 51% 30.07 in 10.0 mi West 9.2 mph - N/A   Clear
1:14 AM 77.9 °F - 59.4 °F 53% 30.07 in 10.0 mi West 5.8 mph - N/A   Clear
1:35 AM 77.4 °F - 59.5 °F 54% 30.07 in 10.0 mi WSW 4.6 mph - N/A   Clear
1:54 AM 77.5 °F - 58.5 °F 52% 30.07 in 10.0 mi West 5.8 mph - N/A   Clear
2:14 AM 77.4 °F - 57.9 °F 51% 30.07 in 10.0 mi WSW 5.8 mph - N/A   Clear
2:35 AM 76.5 °F - 57.6 °F 52% 30.07 in 10.0 mi WSW 3.5 mph - N/A   Clear
2:54 AM 76.1 °F - 57.6 °F 53% 30.07 in 10.0 mi Calm Calm - N/A   Clear
3:14 AM 75.4 °F - 58.1 °F 55% 30.07 in 10.0 mi SW 3.5 mph - N/A   Clear
3:34 AM 74.8 °F - 58.8 °F 57% 30.07 in 10.0 mi SSW 3.5 mph - N/A   Clear
3:54 AM 74.3 °F - 59.0 °F 59% 30.07 in 10.0 mi Calm Calm - N/A   Clear
4:14 AM 73.6 °F - 59.0 °F 60% 30.07 in 10.0 mi SW 3.5 mph - N/A   Clear
4:34 AM 73.4 °F - 59.4 °F 61% 30.08 in 10.0 mi SW 3.5 mph - N/A   Clear
4:55 AM 72.7 °F - 59.9 °F 64% 30.08 in 10.0 mi SSW 3.5 mph - N/A   Clear
5:14 AM 72.7 °F - 59.9 °F 64% 30.09 in 10.0 mi SW 3.5 mph - N/A   Clear
5:34 AM 72.1 °F - 59.9 °F 65% 30.10 in 10.0 mi WSW 3.5 mph - N/A   Scattered Clouds
5:55 AM 72.1 °F - 59.9 °F 65% 30.10 in 10.0 mi SW 5.8 mph - N/A   Mostly Cloudy
6:14 AM 71.6 °F - 59.5 °F 66% 30.10 in 10.0 mi WSW 3.5 mph - N/A   Scattered Clouds
6:34 AM 71.6 °F - 59.4 °F 65% 30.10 in 10.0 mi WSW 3.5 mph - N/A   Scattered Clouds
6:54 AM 71.4 °F - 59.2 °F 65% 30.11 in 10.0 mi WSW 3.5 mph - N/A   Clear
7:14 AM 71.6 °F - 59.0 °F 64% 30.10 in 10.0 mi SW 4.6 mph - N/A   Clear
7:35 AM 72.3 °F - 59.0 °F 63% 30.10 in 10.0 mi SW 3.5 mph - N/A   Clear
7:54 AM 73.4 °F - 59.2 °F 61% 30.11 in 10.0 mi SW 4.6 mph - N/A   Clear
8:35 AM 75.7 °F - 60.3 °F 59% 30.11 in 10.0 mi SSW 6.9 mph - N/A   Clear
8:54 AM 77.0 °F - 60.6 °F 57% 30.11 in 10.0 mi SW 6.9 mph - N/A   Mostly Cloudy
9:15 AM 77.5 °F - 60.6 °F 56% 30.11 in 10.0 mi SW 6.9 mph - N/A   Mostly Cloudy
9:35 AM 78.4 °F - 60.6 °F 54% 30.11 in 10.0 mi WSW 6.9 mph - N/A   Scattered Clouds
9:54 AM 79.5 °F - 61.0 °F 53% 30.11 in 10.0 mi SW 8.1 mph - N/A   Clear
10:15 AM 80.8 °F 81.6 °F 61.2 °F 51% 30.10 in 10.0 mi WSW 6.9 mph - N/A   Clear
10:34 AM 82.2 °F 83.0 °F 61.9 °F 50% 30.11 in 10.0 mi SW 6.9 mph - N/A   Scattered Clouds
11:15 AM 84.2 °F 85.0 °F 62.6 °F 48% 30.11 in 10.0 mi SW 8.1 mph - N/A   Scattered Clouds
11:35 AM 84.4 °F 85.2 °F 63.0 °F 48% 30.11 in 10.0 mi WSW 8.1 mph - N/A   Scattered Clouds
11:54 AM 84.9 °F 85.9 °F 63.0 °F 48% 30.10 in 10.0 mi SW 10.4 mph 16.1 mph N/A   Scattered Clouds
12:15 PM 86.5 °F 87.0 °F 62.1 °F 44% 30.10 in 10.0 mi SW 8.1 mph - N/A   Scattered Clouds
12:35 PM 88.0 °F 87.9 °F 60.8 °F 40% 30.10 in 10.0 mi SW 12.7 mph 17.3 mph N/A   Scattered Clouds
12:54 PM 88.9 °F 88.3 °F 59.4 °F 37% 30.09 in 10.0 mi WSW 12.7 mph 19.6 mph N/A   Scattered Clouds
1:15 PM 88.5 °F 88.6 °F 61.3 °F 40% 30.09 in 10.0 mi WSW 13.8 mph 18.4 mph N/A   Scattered Clouds
1:34 PM 90.0 °F 89.4 °F 59.9 °F 36% 30.09 in 10.0 mi West 11.5 mph 16.1 mph N/A   Mostly Cloudy
1:54 PM 89.8 °F 89.1 °F 59.5 °F 36% 30.08 in 10.0 mi WSW 5.8 mph 17.3 mph N/A   Scattered Clouds
2:15 PM 91.4 °F 90.4 °F 58.8 °F 33% 30.07 in 10.0 mi SW 8.1 mph 16.1 mph N/A   Scattered Clouds
2:34 PM 91.2 °F 89.9 °F 57.7 °F 32% 30.07 in 10.0 mi WSW 11.5 mph 17.3 mph N/A   Mostly Cloudy
2:54 PM 90.5 °F 90.1 °F 59.9 °F 36% 30.07 in 10.0 mi West 10.4 mph 17.3 mph N/A   Mostly Cloudy
3:15 PM 91.4 °F 90.4 °F 58.3 °F 33% 30.07 in 10.0 mi West 9.2 mph 18.4 mph N/A   Scattered Clouds
3:34 PM 90.7 °F 90.1 °F 59.4 °F 35% 30.07 in 10.0 mi WSW 6.9 mph 17.3 mph N/A   Scattered Clouds
3:54 PM 90.5 °F 89.8 °F 59.7 °F 35% 30.06 in 10.0 mi WSW 6.9 mph 17.3 mph N/A   Scattered Clouds
4:15 PM 89.8 °F 89.4 °F 60.4 °F 37% 30.05 in 10.0 mi SW 10.4 mph 17.3 mph N/A   Scattered Clouds
4:34 PM 90.9 °F 90.6 °F 60.4 °F 36% 30.05 in 10.0 mi West 10.4 mph 17.3 mph N/A   Scattered Clouds
4:54 PM 90.5 °F 90.4 °F 60.6 °F 37% 30.04 in 10.0 mi WSW 11.5 mph - N/A   Scattered Clouds
5:15 PM 91.6 °F 91.3 °F 60.3 °F 35% 30.04 in 10.0 mi WSW 6.9 mph 16.1 mph N/A   Scattered Clouds
5:34 PM 91.0 °F 90.9 °F 60.6 °F 36% 30.04 in 10.0 mi SW 9.2 mph - N/A   Scattered Clouds
5:55 PM 91.4 °F 91.0 °F 59.9 °F 35% 30.04 in 10.0 mi West 9.2 mph 20.7 mph N/A   Clear
6:14 PM 90.7 °F 90.4 °F 60.3 °F 36% 30.03 in 10.0 mi West 6.9 mph - N/A   Clear
6:34 PM 91.0 °F 90.5 °F 59.9 °F 35% 30.03 in 10.0 mi West 9.2 mph - N/A   Scattered Clouds
6:55 PM 90.5 °F 90.1 °F 59.9 °F 36% 30.03 in 10.0 mi West 6.9 mph - N/A   Scattered Clouds
7:14 PM 91.0 °F 90.5 °F 59.5 °F 35% 30.02 in 10.0 mi WSW 10.4 mph - N/A   Mostly Cloudy
7:35 PM 90.1 °F 89.6 °F 60.1 °F 36% 30.03 in 10.0 mi WSW 4.6 mph - N/A   Mostly Cloudy
7:54 PM 89.8 °F 89.1 °F 59.9 °F 36% 30.03 in 10.0 mi WSW 6.9 mph - N/A   Mostly Cloudy
8:14 PM 90.0 °F 89.4 °F 59.4 °F 36% 30.03 in 10.0 mi WSW 8.1 mph - N/A   Mostly Cloudy
8:35 PM 88.9 °F 88.5 °F 60.3 °F 38% 30.03 in 10.0 mi SW 9.2 mph - N/A   Mostly Cloudy
8:54 PM 88.0 °F 87.9 °F 60.8 °F 40% 30.04 in 10.0 mi WSW 6.9 mph - N/A   Scattered Clouds
9:15 PM 87.3 °F 87.2 °F 60.8 °F 41% 30.04 in 10.0 mi WSW 6.9 mph - N/A   Mostly Cloudy
9:34 PM 86.9 °F 87.0 °F 61.2 °F 42% 30.05 in 10.0 mi SW 9.2 mph - N/A   Mostly Cloudy
9:54 PM 86.2 °F 86.6 °F 61.7 °F 44% 30.05 in 10.0 mi SW 8.1 mph - N/A   Scattered Clouds
10:15 PM 85.5 °F 85.9 °F 61.7 °F 45% 30.06 in 10.0 mi SW 8.1 mph - N/A   Clear
10:34 PM 85.1 °F 85.7 °F 61.9 °F 46% 30.06 in 10.0 mi WSW 8.1 mph - N/A   Clear
10:54 PM 84.4 °F 85.0 °F 62.1 °F 47% 30.06 in 10.0 mi SW 6.9 mph - N/A   Clear
11:15 PM 84.0 °F 84.7 °F 62.2 °F 48% 30.06 in 10.0 mi WSW 6.9 mph - N/A   Clear
11:34 PM 83.5 °F 84.3 °F 62.2 °F 49% 30.06 in 10.0 mi WSW 8.1 mph - N/A   Clear
11:54 PM 82.8 °F 83.6 °F 62.6 °F 50% 30.06 in 10.0 mi WSW 6.9 mph - N/A   Clear